Location: Ab? ar R?sh Ba?r?
(24.1861°N, 32.8847°E)
Time: 23:52:43
(UTC+00:00)

CZ-4 R/B - Pass Details

Date: 24 October 2021
Orbit: 530 x 595 km, 97.8° (Epoch: 05 December)

Event Time Altitude Azimuth Distance (km) Brightness Sun altitude
Exits shadow 16:25:14 31° 63° (ENE) 988 2.1 -16.7°
Drops below altitude 10° 16:28:28 10° 11° (N) 1,869 3.9 -17.5°
Sets 16:30:47 0° 2° (N) 2,780 4.8 -18.0°
